Location: Hartford
(41.7640°N, 72.6860°W)
Time: 22:04:49
(UTC-04:00)

ISS - All Passes

Search period start: 29 July 2015 00:00
Search period end: 08 August 2015 00:00
Orbit: 401 x 403 km, 51.6° (Epoch: 29 July)

Date Brightness Start Highest point End Pass type
(mag) Time Alt. Az. Time Alt. Az. Time Alt. Az.
29 Jul - 00:06:14 10° W 00:09:06 28° NNW 00:11:59 10° NE visible
29 Jul - 01:44:24 10° NW 01:46:20 15° N 01:48:17 10° NNE visible
29 Jul - 03:21:07 10° NW 03:23:40 21° NNE 03:26:14 10° ENE visible
29 Jul - 04:57:10 10° NW 05:00:27 87° SW 05:03:43 10° SE visible
29 Jul - 21:37:05 10° S 21:39:43 23° SE 21:42:25 10° E visible
29 Jul - 23:12:53 10° WSW 23:16:01 42° NNW 23:19:09 10° NE night (unlit)
30 Jul - 00:50:57 10° NW 00:53:05 16° N 00:55:13 10° NNE visible
30 Jul - 02:28:14 10° NNW 02:30:27 17° N 02:32:42 10° NE visible
30 Jul - 04:04:16 10° NW 04:07:28 51° NNE 04:10:39 10° ESE visible
30 Jul - 05:41:15 10° W 05:43:41 19° SW 05:46:03 10° S daylight
30 Jul - 20:45:35 10° SSE 20:46:57 12° SE 20:48:26 10° ESE visible
30 Jul - 22:19:45 10° WSW 22:23:00 76° NW 22:26:16 10° NE visible
30 Jul - 23:57:25 10° WNW 23:59:52 19° NNW 00:02:19 10° NNE visible
31 Jul - 01:35:14 10° NNW 01:37:13 15° N 01:39:12 10° NE visible
31 Jul - 03:11:25 10° NW 03:14:23 31° NNE 03:17:22 10° E visible
31 Jul - 04:47:49 10° WNW 04:50:52 36° SW 04:53:53 10° SSE visible
31 Jul - 21:26:54 10° SW 21:30:05 55° SE 21:33:17 10° ENE visible
31 Jul - 23:03:54 10° W 23:06:42 25° NNW 23:09:29 10° NE visible
01 Aug - 00:42:02 10° NW 00:43:57 14° N 00:45:53 10° NE visible
01 Aug - 02:18:36 10° NW 02:21:16 22° NNE 02:23:56 10° ENE visible
01 Aug - 03:54:43 10° WNW 03:57:59 73° SW 04:01:13 10° SE visible
01 Aug - 20:34:24 10° SSW 20:37:13 28° SE 20:40:05 10° ENE visible
01 Aug - 22:10:31 10° W 22:13:35 37° NNW 22:16:40 10° NE visible
01 Aug - 23:48:39 10° NW 23:50:42 15° N 23:52:45 10° NNE visible
02 Aug - 01:25:45 10° NNW 01:28:04 18° NNE 01:30:24 10° ENE visible
02 Aug - 03:01:47 10° NW 03:05:02 60° NNE 03:08:15 10° ESE visible
02 Aug - 04:39:02 10° W 04:41:10 16° SW 04:43:13 10° S visible
02 Aug - 19:42:33 10° SSE 19:44:26 15° SE 19:46:24 10° E daylight
02 Aug - 21:17:19 10° WSW 21:20:34 64° NNW 21:23:48 10° NE visible
02 Aug - 22:55:07 10° WNW 22:57:28 18° NNW 22:59:50 10° NNE visible
03 Aug - 00:32:49 10° NNW 00:34:50 15° N 00:36:52 10° NE visible
03 Aug - 02:08:56 10° NW 02:11:58 35° NNE 02:15:02 10° E night (unlit)
03 Aug - 03:45:27 10° WNW 03:48:22 30° SW 03:51:16 10° SSE night (unlit)
03 Aug - 20:24:23 10° SW 20:27:36 67° SE 20:30:51 10° ENE daylight
03 Aug - 22:01:36 10° WNW 22:04:17 23° NNW 22:06:59 10° NE visible
03 Aug - 23:39:41 10° NW 23:41:35 14° N 23:43:30 10° NE visible
04 Aug - 01:16:07 10° NW 01:18:51 24° NNE 01:21:37 10° ENE visible
04 Aug - 02:52:17 10° WNW 02:55:31 60° SW 02:58:43 10° SE night (unlit)
04 Aug - 19:31:46 10° SSW 19:34:44 33° SE 19:37:44 10° ENE daylight
04 Aug - 21:08:10 10° W 21:11:10 33° NNW 21:14:11 10° NE visible
04 Aug - 22:46:20 10° NW 22:48:20 15° N 22:50:19 10° NNE visible
05 Aug - 00:23:17 10° NNW 00:25:41 19° NNE 00:28:06 10° ENE visible
05 Aug - 01:59:19 10° NW 02:02:35 71° NNE 02:05:49 10° ESE night (unlit)
05 Aug - 03:36:56 10° W 03:38:40 13° SW 03:40:17 10° SSW night (unlit)
05 Aug - 18:39:42 10° S 18:41:56 18° SE 18:44:14 10° E daylight
05 Aug - 20:14:55 10° WSW 20:18:07 54° NNW 20:21:20 10° NE daylight
05 Aug - 21:52:50 10° NW 21:55:06 17° NNW 21:57:21 10° NNE visible
05 Aug - 23:30:22 10° NNW 23:32:27 16° N 23:34:34 10° NE visible
06 Aug - 01:06:27 10° NW 01:09:33 40° NNE 01:12:39 10° E visible
06 Aug - 02:43:07 10° WNW 02:45:53 25° SW 02:48:37 10° SSE night (unlit)
06 Aug - 19:21:54 10° SW 19:25:09 81° SE 19:28:25 10° ENE daylight
06 Aug - 20:59:17 10° WNW 21:01:54 21° NNW 21:04:30 10° NE visible
06 Aug - 22:37:18 10° NW 22:39:13 15° N 22:41:09 10° NE visible
07 Aug - 00:13:38 10° NW 00:16:28 27° NNE 00:19:18 10° E visible
07 Aug - 01:49:52 10° WNW 01:53:03 49° SW 01:56:12 10° SE night (unlit)
07 Aug - 18:29:11 10° SSW 18:32:15 40° SE 18:35:20 10° ENE daylight
07 Aug - 20:05:50 10° W 20:08:46 29° NNW 20:11:41 10° NE daylight
07 Aug - 21:44:00 10° NW 21:45:58 15° N 21:47:55 10° NNE visible
07 Aug - 23:20:48 10° NNW 23:23:18 20° NNE 23:25:49 10° ENE visible
